Tracking 25686 objects as of 25-May-2022
HD Live streaming from Space Station
objects crossing your sky now

SL-14 R/B

Track SL-14 R/B now!
10-day predictions


NORAD ID: 23793
Int'l Code: 1996-009G
Perigee: 1,414.8 km
Apogee: 1,486.1 km
Inclination: 82.6 °
Period: 114.7 minutes
Semi major axis: 7821 km
RCS: 5.1045 m2 (large)
Launch date: February 19, 1996
Source: Commonwealth of Independent States (former USSR) (CIS)
Launch site: PLESETSK MISSILE AND SPACE COMPLEX (PKMTR)

Note: This is a ROCKET BODY
aabbcc
Your satellite tracking list
Your tracking list is empty




NASA's NSSDC Master Catalog

Two Line Element Set (TLE):
1 23793U 96009G   22144.81172473  .00000000  00000-0 -67494-4 0  9999
2 23793  82.5694 264.2312 0045577  48.4503  65.9240 12.55073567203149
Source of the keplerian elements: AFSPC